CST,Max TemperatureF,Mean TemperatureF,Min TemperatureF,Max Dew PointF,MeanDew PointF,Min DewpointF,Max Humidity, Mean Humidity, Min Humidity, Max Sea Level PressureIn, Mean Sea Level PressureIn, Min Sea Level PressureIn, Max VisibilityMiles, Mean VisibilityMiles, Min VisibilityMiles, Max Wind SpeedMPH, Mean Wind SpeedMPH, Max Gust SpeedMPH,PrecipitationIn, CloudCover, Events, WindDirDegrees
2014-2-1,62,54,45,59,53,42,100,92,72,30.16,30.11,30.08,10,6,0,10,5,,0.00,6,Fog,110
2014-2-2,60,55,50,59,57,51,100,99,88,30.15,30.08,30.00,10,3,0,14,7,,0.00,8,Fog,118
2014-2-3,66,58,51,66,61,51,100,98,84,30.12,30.04,29.99,10,5,0,15,7,,0.22,8,Fog-Rain,279
2014-2-4,64,57,50,64,58,50,100,100,100,30.11,30.04,29.95,10,2,0,13,7,,0.00,8,Fog,105
2014-2-5,68,54,38,68,55,32,100,85,54,30.26,30.06,29.94,10,7,0,17,12,25,0.02,4,Fog-Rain,315
2014-2-6,41,38,33,36,31,28,99,77,60,30.35,30.29,30.23,10,9,4,18,12,25,0.05,6,Rain,15
2014-2-7,59,45,31,44,37,30,99,76,48,30.34,30.27,30.21,10,9,6,13,9,20,0.02,3,Rain,26
2014-2-8,59,52,44,50,47,44,100,90,70,30.26,30.19,30.13,10,9,4,9,6,,0.39,4,Rain,356
2014-2-9,64,52,41,52,47,40,100,83,55,30.22,30.15,30.08,10,10,10,12,5,,0.00,1,,314
2014-2-10,66,54,43,63,54,44,100,95,77,30.15,30.11,30.06,10,7,0,13,4,18,0.00,4,Fog,255
2014-2-11,57,52,48,57,54,48,100,100,98,30.14,30.07,30.00,7,4,1,13,7,20,0.56,8,Rain,30
2014-2-12,48,44,39,48,45,37,100,99,93,30.01,29.85,29.74,10,5,1,18,10,25,1.50,8,Rain-Thunderstorm,25
2014-2-13,57,47,37,39,36,33,99,76,41,30.04,29.97,29.88,10,9,5,14,10,22,0.00,4,,321
2014-2-14,62,48,34,56,45,34,100,81,51,30.06,29.97,29.84,10,9,3,30,7,37,0.01,3,Fog-Rain,260
2014-2-15,61,51,37,47,37,30,89,63,31,30.18,30.09,29.89,10,10,10,16,11,21,0.01,2,,346
2014-2-16,62,48,35,52,42,32,95,76,48,30.22,30.18,30.14,10,10,10,12,4,,0.00,2,,280
2014-2-17,68,54,41,62,53,32,100,90,33,30.22,30.18,30.16,10,9,2,12,3,,0.00,4,Fog,153
2014-2-18,71,62,53,65,61,54,100,93,78,30.23,30.17,30.11,10,6,0,12,3,17,0.00,5,Fog,182
2014-2-19,69,64,60,66,64,60,100,98,83,30.17,30.10,30.05,10,5,0,12,7,,0.00,7,Fog,163
2014-2-20,74,68,62,68,65,63,100,98,73,30.10,30.04,29.96,7,2,0,17,10,26,0.00,8,Fog,143
2014-2-21,68,59,49,67,53,35,100,80,30,30.11,29.99,29.88,10,6,0,30,13,46,1.83,6,Fog-Rain-Thunderstorm,349
2014-2-22,68,56,43,47,37,30,78,53,30,30.18,30.11,30.07,10,10,10,10,6,,0.00,3,,59
2014-2-23,63,57,51,63,60,45,100,96,69,30.09,30.03,29.95,10,5,1,13,5,,2.02,8,Rain-Thunderstorm,124
2014-2-24,75,66,58,63,60,56,100,91,50,30.13,30.07,29.99,10,6,0,18,4,24,0.00,6,Fog,348
2014-2-25,72,62,51,62,57,51,100,83,61,30.11,30.04,29.95,10,10,7,10,4,,0.00,4,,260
2014-2-26,62,52,41,63,52,31,100,94,68,30.01,29.91,29.85,10,7,1,17,8,25,1.03,8,Rain,359
2014-2-27,56,46,35,32,24,17,72,50,24,30.08,30.03,29.98,10,10,10,15,10,21,0.00,4,,359
2014-2-28,56,42,29,45,29,21,78,53,29,30.16,30.11,30.04,10,10,10,12,7,,0.00,2,,89